Volver al catálogo

HAPS R/B

ActivoLEO
NORAD 37229·ROCKET BODY·🇺🇸 United States

Lanzado Nov 20, 2010 desde Kodiak Launch Complex

Loading…

Próximos Pases (próximas 24 horas)

TLE

ObsoletoSource: Mike McCants

Época: Sep 5, 2026, 22:36 UTC

1 37229U 10062H   26248.94195371 0.00000000  00000-0  00000-0 0    06
2 37229  72.0091 292.4481 0139516 202.1752 157.8248 12.86687943    07

Sigue HAPS R/B en tiempo real con AllMySat

Download on the App Store